Date String (YYYY-MM-DD hh:mm:ss) UTC,Instrument flags,absolute air pressure of the measurement (hPa),sample flow rate (lpm),inlet stack bypass flow (lpm),air temperature of the measurement (°C),ambient temperature measured by the external sensor (°C),aerosol sample conditioner tube jacket temperature (°C),OPC LED temperature (°C),internal box temperature (°C),relative humidity of the measurement (%),span deviation,mass concentration of particles derived from Lorenz-Mie calculation of OPC scattering (μg/m³),mass concentration of particles derived from Lorenz-Mie calculation of OPC scattering (μg/m³),mass concentration of particles derived from Lorenz-Mie calculation of OPC scattering (μg/m³)
DateTimeUTC,F1_M11,P_M11,Q1_M11,Q2_M11,T1_M11,T2_M11,T3_M11,T4_M11,T5_M11,U1_M11,ZSPAN_M11,X0_M11,X2_M11,X1_M11
2023-12-13 10:00:00,SystemResetWarning,0838.6,4.99,000.00,019.0,018.2,000.0,027.3,020.3,21.8,0000.0,0014.18,0009.31,0008.70
2023-12-13 10:01:00,SystemResetWarning,0838.6,5.00,000.00,019.0,018.2,000.0,027.3,020.3,21.8,0000.0,0014.47,0009.28,0008.71
2023-12-13 10:02:00,SystemResetWarning,0838.6,5.00,000.00,019.0,018.1,000.0,027.3,020.3,21.8,0000.0,0015.56,0009.29,0008.72
2023-12-13 10:03:00,SystemResetWarning,0838.5,5.01,000.00,019.0,018.1,000.0,027.3,020.3,21.8,0000.0,0015.81,0009.30,0008.72
2023-12-13 10:04:00,SystemResetWarning,0838.5,5.01,000.00,019.0,018.1,000.0,027.3,020.3,21.8,0000.0,0015.29,0009.33,0008.72
2023-12-13 10:05:00,SystemResetWarning,0838.5,4.99,000.00,019.0,018.1,000.0,027.3,020.2,21.8,0000.0,0015.21,0009.38,0008.72
2023-12-13 10:06:00,SystemResetWarning,0838.5,4.99,000.00,019.0,018.1,000.0,027.3,020.3,21.7,0000.0,0015.40,0009.38,0008.72
2023-12-13 10:07:00,SystemResetWarning,0838.5,5.01,000.00,019.0,018.1,000.0,027.3,020.2,21.7,0000.0,0015.53,0009.35,0008.73
2023-12-13 10:08:00,SystemResetWarning,0838.5,5.01,000.00,019.0,018.1,000.0,027.3,020.2,21.7,0000.0,0015.63,0009.34,0008.73
2023-12-13 10:09:00,SystemResetWarning,0838.5,5.00,000.00,019.0,018.1,000.0,027.3,020.3,21.6,0000.0,0015.59,0009.35,0008.74
2023-12-13 10:10:00,SystemResetWarning,0838.5,5.00,000.00,019.0,018.1,000.0,027.3,020.2,21.6,0000.0,0015.52,0009.33,0008.75
2023-12-13 10:11:00,SystemResetWarning,0838.4,5.00,000.00,019.0,018.1,000.0,027.3,020.3,21.6,0000.0,0015.91,0009.34,0008.75
2023-12-13 10:12:00,SystemResetWarning,0838.4,4.99,000.00,019.0,018.1,000.0,027.3,020.2,21.6,0000.0,0015.43,0009.32,0008.74
2023-12-13 10:13:00,SystemResetWarning,0838.4,5.00,000.00,019.0,018.1,000.0,027.3,020.2,21.6,0000.0,0014.44,0009.29,0008.73
2023-12-13 10:14:00,SystemResetWarning,0838.4,5.01,000.00,019.0,018.1,000.0,027.3,020.2,21.6,0000.0,0014.01,0009.27,0008.73
2023-12-13 10:15:00,SystemResetWarning,0838.4,5.01,000.00,019.0,018.1,000.0,027.3,020.3,21.5,0000.0,0013.84,0009.22,0008.73
2023-12-13 10:16:00,SystemResetWarning,0838.4,4.99,000.00,019.0,018.1,000.0,027.3,020.3,21.5,0000.0,0013.21,0009.16,0008.72
2023-12-13 10:17:00,SystemResetWarning,0838.4,5.00,000.00,019.0,018.1,000.0,027.3,020.2,21.5,0000.0,0012.94,0009.16,0008.73
2023-12-13 10:18:00,SystemResetWarning,0838.4,4.99,000.00,019.0,018.1,000.0,027.3,020.2,21.5,0000.0,0012.84,0009.19,0008.73
2023-12-13 10:19:00,SystemResetWarning,0838.4,5.00,000.00,019.0,018.1,000.0,027.3,020.2,21.5,0000.0,0012.78,0009.24,0008.75
2023-12-13 10:20:00,SystemResetWarning,0838.3,5.00,000.00,019.0,018.1,000.0,027.3,020.2,21.5,0000.0,0012.88,0009.28,0008.76
2023-12-13 10:21:00,SystemResetWarning,0838.3,5.01,000.00,019.0,018.1,000.0,027.3,020.2,21.5,0000.0,0013.39,0009.35,0008.79
2023-12-13 10:22:00,SystemResetWarning,0838.3,5.00,000.00,019.0,018.1,000.0,027.3,020.2,21.5,0000.0,0013.07,0009.38,0008.84
2023-12-13 10:23:00,SystemResetWarning,0838.3,5.00,000.00,019.0,018.1,000.0,027.3,020.2,21.6,0000.0,0013.02,0009.41,0008.86
2023-12-13 10:24:00,SystemResetWarning,0838.3,5.00,000.00,019.0,018.1,000.0,027.3,020.2,21.6,0000.0,0013.00,0009.40,0008.83
2023-12-13 10:25:00,SystemResetWarning,0838.3,5.00,000.00,019.0,018.1,000.0,027.3,020.2,21.6,0000.0,0012.99,0009.37,0008.79
2023-12-13 10:26:00,SystemResetWarning,0838.3,5.00,000.00,019.0,018.1,000.0,027.3,020.2,21.6,0000.0,0012.96,0009.33,0008.74
2023-12-13 10:27:00,SystemResetWarning,0838.2,5.01,000.00,019.0,018.1,000.0,027.3,020.2,21.6,0000.0,0012.93,0009.32,0008.70
2023-12-13 10:28:00,SystemResetWarning,0838.2,5.00,000.00,019.0,018.0,000.0,027.3,020.2,21.6,0000.0,0013.29,0009.29,0008.67
2023-12-13 10:29:00,SystemResetWarning,0838.2,5.00,000.00,019.0,018.0,000.0,027.3,020.2,21.7,0000.0,0014.11,0009.28,0008.64
2023-12-13 10:30:00,SystemResetWarning,0838.2,5.00,000.00,019.0,018.0,000.0,027.3,020.2,21.7,0000.0,0014.07,0009.22,0008.58
2023-12-13 10:31:00,SystemResetWarning,0838.2,5.00,000.00,019.0,018.0,000.0,027.3,020.2,21.7,0000.0,0014.25,0009.16,0008.53
2023-12-13 10:32:00,SystemResetWarning,0838.2,5.00,000.00,019.0,018.0,000.0,027.3,020.2,21.7,0000.0,0014.49,0009.08,0008.47
2023-12-13 10:33:00,SystemResetWarning,0838.2,5.00,000.00,019.0,018.0,000.0,027.3,020.2,21.7,0000.0,0014.45,0009.00,0008.38
2023-12-13 10:34:00,SystemResetWarning,0838.2,4.99,000.00,019.0,018.0,000.0,027.3,020.2,21.7,0000.0,0014.97,0008.94,0008.32
2023-12-13 10:35:00,SystemResetWarning,0838.2,4.99,000.00,019.0,018.0,000.0,027.3,020.2,21.7,0000.0,0014.98,0008.91,0008.30
2023-12-13 10:36:00,SystemResetWarning,0838.2,4.99,000.00,018.9,018.0,000.0,027.2,020.1,21.7,0000.0,0015.02,0008.92,0008.30
2023-12-13 10:37:00,SystemResetWarning,0838.2,5.00,000.00,019.0,018.0,000.0,027.2,020.2,21.7,0000.0,0015.43,0008.97,0008.31
2023-12-13 10:38:00,SystemResetWarning,0838.2,5.01,000.00,019.0,018.0,000.0,027.2,020.2,21.7,0000.0,0015.53,0008.98,0008.32
2023-12-13 10:39:00,SystemResetWarning,0838.1,5.01,000.00,018.9,018.0,000.0,027.2,020.2,21.7,0000.0,0015.36,0008.98,0008.32
2023-12-13 10:40:00,SystemResetWarning,0838.2,5.01,000.00,018.9,018.0,000.0,027.2,020.1,21.8,0000.0,0014.65,0008.93,0008.32
2023-12-13 10:41:00,SystemResetWarning,0838.2,5.00,000.00,018.9,018.0,000.0,027.2,020.2,21.8,0000.0,0014.63,0008.94,0008.32
2023-12-13 10:42:00,SystemResetWarning,0838.2,5.00,000.00,018.9,018.0,000.0,027.2,020.2,21.8,0000.0,0014.69,0008.94,0008.33
2023-12-13 10:43:00,SystemResetWarning,0838.2,5.00,000.00,018.9,018.0,000.0,027.2,020.2,21.8,0000.0,0014.00,0008.92,0008.33
2023-12-13 10:44:00,SystemResetWarning,0838.2,5.00,000.00,018.9,018.0,000.0,027.2,020.2,21.8,0000.0,0013.69,0008.92,0008.34
2023-12-13 10:45:00,SystemResetWarning,0838.2,5.00,000.00,018.9,018.0,000.0,027.2,020.2,21.8,0000.0,0013.07,0008.94,0008.38
2023-12-13 10:46:00,SystemResetWarning,0838.2,5.00,000.00,018.9,018.0,000.0,027.2,020.1,21.7,0000.0,0013.50,0008.97,0008.41
2023-12-13 10:47:00,SystemResetWarning,0838.1,4.99,000.00,018.9,018.0,000.0,027.2,020.1,21.7,0000.0,0013.61,0009.00,0008.46
2023-12-13 10:48:00,SystemResetWarning,0838.2,5.00,000.00,018.9,018.0,000.0,027.2,020.2,21.7,0000.0,0013.31,0009.03,0008.51
2023-12-13 10:49:00,SystemResetWarning,0838.2,5.00,000.00,018.9,018.0,000.0,027.2,020.2,21.7,0000.0,0013.33,0009.08,0008.55
2023-12-13 10:50:00,SystemResetWarning,0838.1,5.01,000.00,018.9,018.0,000.0,027.2,020.1,21.7,0000.0,0013.60,0009.15,0008.60
2023-12-13 10:51:00,SystemResetWarning,0838.2,5.00,000.00,018.9,018.0,000.0,027.2,020.1,21.7,0000.0,0013.61,0009.20,0008.66
2023-12-13 10:52:00,SystemResetWarning,0838.2,5.00,000.00,018.9,018.0,000.0,027.2,020.1,21.6,0000.0,0013.83,0009.23,0008.70
2023-12-13 10:53:00,SystemResetWarning,0838.1,5.00,000.00,018.9,018.0,000.0,027.2,020.1,21.6,0000.0,0014.21,0009.25,0008.73
2023-12-13 10:54:00,SystemResetWarning,0838.1,5.00,000.00,018.9,018.0,000.0,027.2,020.1,21.6,0000.0,0014.49,0009.34,0008.78
2023-12-13 10:55:00,SystemResetWarning,0838.2,5.01,000.00,018.9,018.0,000.0,027.2,020.1,21.6,0000.0,0014.61,0009.39,0008.82
2023-12-13 10:56:00,SystemResetWarning,0838.2,5.00,000.00,018.9,018.0,000.0,027.2,020.1,21.6,0000.0,0014.57,0009.39,0008.83
2023-12-13 10:57:00,SystemResetWarning,0838.2,5.00,000.00,018.9,018.0,000.0,027.2,020.1,21.6,0000.0,0014.20,0009.40,0008.83
2023-12-13 10:58:00,SystemResetWarning,0838.2,5.00,000.00,018.9,018.0,000.0,027.2,020.1,21.6,0000.0,0014.11,0009.38,0008.82
2023-12-13 10:59:00,SystemResetWarning,0838.2,5.00,000.00,018.9,018.0,000.0,027.2,020.1,21.7,0000.0,0014.12,0009.38,0008.80
